Location: *
(33.3200°N, 8.3381°W)
Time: 01:15:10
(UTC+00:00)

Cosmos 1959 Rocket - Pass Details

Date: 09 April 2020
Orbit: 946 x 998 km, 82.9° (Epoch: 06 June)

Event Time Altitude Azimuth Distance (km) Brightness Sun altitude
Rises 21:28:53 0° 353° (N) 3,698 8.1 -29.6°
Reaches altitude 10° 21:31:25 10° 354° (N) 2,740 7.3 -30.0°
Enters shadow 21:37:13 77° 347° (NNW) 999 4.5 -31.0°
